DAL1943 KBOS-KDTW

Flight info

Callsign DAL1943
Flight time 1h 44m
Altitude 38000
Route HYLND7 HYLND CAM Q822 GONZZ DONEO TPGUN2
Aircraft A20N/M-SDE2E3FGHIRWXY/LB1

Departure

Time 2026-05-04 20:19
Airport Boston Logan International Airport (KBOS)

Arrival

Time 2026-05-04 22:03
Airport Detroit Metropolitan Wayne County Airport (KDTW)
Time Latitude Longitude Altitude Speed Heading
2026-05-04 19:52 42.36794 -71.01563 19 ft 0 kts 131°
2026-05-04 20:05 42.36797 -71.01568 19 ft 3 kts 131°
2026-05-04 20:05 42.36809 -71.01586 19 ft 3 kts 131°
2026-05-04 20:05 42.36818 -71.01609 19 ft 3 kts 109°
2026-05-04 20:06 42.36824 -71.01633 19 ft 3 kts 91°
2026-05-04 20:06 42.36820 -71.01657 19 ft 3 kts 52°
2026-05-04 20:06 42.36817 -71.01660 20 ft 0 kts 50°
2026-05-04 20:10 42.36818 -71.01659 21 ft 1 kts 47°
2026-05-04 20:10 42.36821 -71.01659 20 ft 0 kts 14°
2026-05-04 20:11 42.36828 -71.01660 19 ft 1 kts 359°
2026-05-04 20:11 42.36838 -71.01664 19 ft 2 kts 337°
2026-05-04 20:11 42.36845 -71.01670 19 ft 1 kts 330°
2026-05-04 20:11 42.36860 -71.01675 19 ft 8 kts 348°
2026-05-04 20:12 42.36904 -71.01654 19 ft 7 kts 29°
2026-05-04 20:12 42.36938 -71.01626 19 ft 0 kts 31°
2026-05-04 20:13 42.36971 -71.01598 20 ft 8 kts 31°
2026-05-04 20:14 42.36983 -71.01555 19 ft 5 kts 95°
2026-05-04 20:14 42.36960 -71.01495 19 ft 8 kts 128°
2026-05-04 20:14 42.36923 -71.01442 19 ft 11 kts 136°
2026-05-04 20:14 42.36867 -71.01368 18 ft 10 kts 132°
2026-05-04 20:15 42.36847 -71.01279 17 ft 8 kts 63°
2026-05-04 20:15 42.36884 -71.01229 16 ft 8 kts 44°
2026-05-04 20:15 42.36928 -71.01172 16 ft 14 kts 44°
2026-05-04 20:15 42.37025 -71.01084 15 ft 18 kts 26°
2026-05-04 20:16 42.37145 -71.01008 15 ft 19 kts 25°
2026-05-04 20:16 42.37269 -71.00930 14 ft 21 kts 24°
2026-05-04 20:16 42.37407 -71.00851 15 ft 21 kts 19°
2026-05-04 20:16 42.37538 -71.00789 19 ft 19 kts 19°
2026-05-04 20:17 42.37664 -71.00731 23 ft 18 kts 19°
2026-05-04 20:17 42.37774 -71.00677 26 ft 16 kts 21°
2026-05-04 20:17 42.37838 -71.00583 26 ft 13 kts 100°
2026-05-04 20:17 42.37791 -71.00484 23 ft 12 kts 161°
2026-05-04 20:18 42.37735 -71.00499 23 ft 0 kts 200°
2026-05-04 20:18 42.37732 -71.00501 23 ft 6 kts 200°
2026-05-04 20:18 42.37469 -71.00631 18 ft 74 kts 201°
2026-05-04 20:18 42.36773 -71.00971 24 ft 136 kts 199°
2026-05-04 20:19 42.35846 -71.01406 518 ft 141 kts 204°
2026-05-04 20:19 42.34852 -71.01584 1170 ft 148 kts 181°
2026-05-04 20:19 42.33861 -71.01158 1938 ft 162 kts 158°
2026-05-04 20:19 42.32909 -71.00021 2323 ft 202 kts 139°
2026-05-04 20:20 42.31972 -70.98453 2748 ft 228 kts 132°
2026-05-04 20:20 42.31247 -70.96423 3312 ft 255 kts 103°
2026-05-04 20:20 42.31299 -70.93941 3983 ft 276 kts 82°
2026-05-04 20:20 42.31680 -70.91398 4696 ft 288 kts 78°
2026-05-04 20:21 42.32140 -70.88662 5552 ft 295 kts 77°
2026-05-04 20:21 42.32586 -70.85940 6424 ft 299 kts 77°
2026-05-04 20:21 42.33458 -70.80352 8047 ft 308 kts 76°
2026-05-04 20:22 42.34077 -70.77599 8908 ft 306 kts 59°
2026-05-04 20:22 42.35352 -70.75383 9805 ft 295 kts 32°
2026-05-04 20:22 42.37141 -70.74074 10446 ft 296 kts 15°
2026-05-04 20:22 42.39135 -70.73185 10750 ft 316 kts 11°
2026-05-04 20:23 42.41319 -70.72320 11183 ft 332 kts 11°
2026-05-04 20:23 42.43594 -70.71704 11833 ft 335 kts 359°
2026-05-04 20:23 42.45898 -70.71967 12570 ft 332 kts 340°
2026-05-04 20:23 42.48056 -70.73071 13351 ft 333 kts 332°
2026-05-04 20:24 42.50132 -70.74407 14057 ft 337 kts 330°
2026-05-04 20:24 42.52171 -70.75973 14786 ft 337 kts 322°
2026-05-04 20:24 42.53902 -70.78004 15520 ft 335 kts 309°
2026-05-04 20:24 42.55327 -70.80517 16285 ft 336 kts 303°
2026-05-04 20:25 42.56631 -70.83167 17015 ft 338 kts 302°
2026-05-04 20:25 42.57924 -70.85852 17720 ft 341 kts 302°
2026-05-04 20:25 42.59231 -70.88562 18378 ft 344 kts 302°
2026-05-04 20:25 42.60542 -70.91272 18991 ft 346 kts 302°
2026-05-04 20:26 42.61881 -70.94031 19618 ft 349 kts 302°
2026-05-04 20:26 42.63215 -70.96779 20252 ft 351 kts 303°
2026-05-04 20:26 42.64551 -70.99528 20868 ft 353 kts 303°
2026-05-04 20:26 42.65901 -71.02310 21459 ft 355 kts 303°
2026-05-04 20:27 42.67270 -71.05130 22065 ft 358 kts 303°
2026-05-04 20:27 42.68650 -71.07977 22654 ft 360 kts 303°
2026-05-04 20:27 42.70034 -71.10834 23210 ft 362 kts 303°
2026-05-04 20:27 42.71415 -71.13687 23681 ft 365 kts 303°
2026-05-04 20:28 42.72810 -71.16574 24147 ft 366 kts 303°
2026-05-04 20:28 42.74208 -71.19468 24597 ft 368 kts 303°
2026-05-04 20:28 42.75614 -71.22380 25036 ft 370 kts 303°
2026-05-04 20:28 42.76924 -71.25355 25460 ft 372 kts 298°
2026-05-04 20:29 42.77949 -71.28586 25882 ft 375 kts 290°
2026-05-04 20:29 42.78609 -71.32048 26278 ft 378 kts 284°
2026-05-04 20:29 42.79092 -71.35577 26690 ft 380 kts 282°
2026-05-04 20:29 42.79501 -71.39144 27072 ft 383 kts 281°
2026-05-04 20:30 42.79859 -71.42552 27430 ft 385 kts 281°
2026-05-04 20:30 42.80227 -71.46140 27829 ft 386 kts 281°
2026-05-04 20:30 42.80602 -71.49768 28208 ft 387 kts 281°
2026-05-04 20:30 42.80985 -71.53403 28578 ft 389 kts 281°
2026-05-04 20:31 42.81377 -71.57060 28948 ft 390 kts 281°
2026-05-04 20:31 42.81774 -71.60716 29289 ft 392 kts 281°
2026-05-04 20:31 42.82177 -71.64396 29636 ft 393 kts 281°
2026-05-04 20:31 42.82581 -71.68091 29935 ft 395 kts 281°
2026-05-04 20:32 42.82985 -71.71799 30253 ft 395 kts 282°
2026-05-04 20:32 42.83385 -71.75489 30648 ft 394 kts 282°
2026-05-04 20:32 42.83784 -71.79190 31003 ft 393 kts 281°
2026-05-04 20:32 42.84181 -71.82874 31329 ft 393 kts 281°
2026-05-04 20:33 42.84576 -71.86553 31674 ft 392 kts 282°
2026-05-04 20:33 42.84964 -71.90176 32001 ft 391 kts 282°
2026-05-04 20:33 42.85355 -71.93844 32348 ft 390 kts 282°
2026-05-04 20:33 42.85743 -71.97493 32687 ft 389 kts 282°
2026-05-04 20:34 42.86130 -72.01148 33002 ft 388 kts 282°
2026-05-04 20:34 42.86514 -72.04785 33317 ft 387 kts 282°
2026-05-04 20:34 42.86896 -72.08416 33613 ft 387 kts 282°
2026-05-04 20:34 42.87276 -72.12042 33872 ft 386 kts 282°
2026-05-04 20:35 42.87655 -72.15662 34095 ft 386 kts 282°
2026-05-04 20:35 42.88003 -72.19001 34265 ft 386 kts 282°
2026-05-04 20:35 42.88386 -72.22668 34445 ft 387 kts 282°
2026-05-04 20:35 42.88765 -72.26311 34634 ft 388 kts 281°
2026-05-04 20:36 42.89142 -72.29950 34817 ft 388 kts 281°
2026-05-04 20:36 42.89519 -72.33609 34981 ft 389 kts 281°
2026-05-04 20:36 42.89895 -72.37261 35164 ft 389 kts 281°
2026-05-04 20:36 42.90265 -72.40875 35330 ft 390 kts 281°
2026-05-04 20:37 42.90640 -72.44550 35504 ft 390 kts 281°
2026-05-04 20:37 42.91014 -72.48226 35673 ft 391 kts 280°
2026-05-04 20:37 42.91362 -72.51663 35835 ft 391 kts 280°
2026-05-04 20:37 42.91734 -72.55341 35984 ft 392 kts 280°
2026-05-04 20:38 42.92105 -72.59021 36147 ft 392 kts 280°
2026-05-04 20:38 42.92476 -72.62716 36305 ft 393 kts 280°
2026-05-04 20:38 42.93091 -72.68865 36529 ft 394 kts 279°
2026-05-04 20:39 42.93460 -72.72575 36682 ft 394 kts 279°
2026-05-04 20:39 42.93947 -72.77489 36869 ft 395 kts 279°
2026-05-04 20:39 42.94306 -72.81122 36972 ft 395 kts 279°
2026-05-04 20:39 42.94553 -72.83629 37059 ft 396 kts 279°
2026-05-04 20:40 42.94905 -72.87212 37202 ft 396 kts 279°
2026-05-04 20:40 42.95275 -72.90995 37319 ft 396 kts 279°
2026-05-04 20:40 42.95639 -72.94721 37450 ft 397 kts 279°
2026-05-04 20:40 42.96004 -72.98472 37564 ft 398 kts 279°
2026-05-04 20:41 42.96367 -73.02217 37695 ft 398 kts 278°
2026-05-04 20:41 42.96729 -73.05967 37793 ft 399 kts 278°
2026-05-04 20:41 42.97444 -73.13409 37815 ft 400 kts 278°
2026-05-04 20:42 42.98169 -73.21012 37814 ft 407 kts 278°
2026-05-04 20:42 42.98896 -73.28687 37806 ft 413 kts 278°
2026-05-04 20:43 42.99455 -73.36563 37816 ft 420 kts 275°
2026-05-04 20:43 42.99711 -73.44604 37805 ft 426 kts 274°
2026-05-04 20:44 42.99903 -73.52683 37804 ft 425 kts 274°
2026-05-04 20:44 43.00082 -73.60756 37808 ft 425 kts 274°
2026-05-04 20:45 43.00262 -73.68784 37798 ft 425 kts 274°
2026-05-04 20:45 43.00442 -73.76860 37807 ft 425 kts 274°
2026-05-04 20:46 43.00616 -73.84928 37810 ft 425 kts 274°
2026-05-04 20:46 43.00785 -73.92997 37802 ft 425 kts 274°
2026-05-04 20:47 43.00949 -74.01072 37797 ft 425 kts 274°
2026-05-04 20:47 43.01106 -74.09155 37811 ft 425 kts 274°
2026-05-04 20:48 43.01258 -74.17223 37810 ft 424 kts 274°
2026-05-04 20:48 43.01406 -74.25079 37808 ft 424 kts 275°
2026-05-04 20:49 43.01712 -74.33168 37808 ft 423 kts 276°
2026-05-04 20:49 43.02096 -74.41138 37803 ft 423 kts 276°
2026-05-04 20:50 43.02475 -74.49159 37802 ft 422 kts 276°
2026-05-04 20:50 43.02831 -74.57132 37809 ft 422 kts 276°
2026-05-04 20:51 43.03175 -74.65128 37806 ft 421 kts 276°
2026-05-04 20:51 43.03513 -74.73126 37807 ft 421 kts 276°
2026-05-04 20:52 43.03845 -74.81117 37794 ft 421 kts 276°
2026-05-04 20:52 43.04168 -74.89023 37804 ft 420 kts 276°
2026-05-04 20:53 43.04489 -74.96979 37799 ft 420 kts 276°
2026-05-04 20:53 43.04803 -75.04906 37798 ft 419 kts 276°
2026-05-04 20:54 43.05113 -75.12863 37797 ft 419 kts 276°
2026-05-04 20:54 43.05414 -75.20751 37793 ft 418 kts 276°
2026-05-04 20:55 43.05710 -75.28690 37786 ft 418 kts 276°
2026-05-04 20:55 43.05960 -75.36626 37788 ft 417 kts 275°
2026-05-04 20:56 43.06178 -75.44564 37789 ft 417 kts 275°
2026-05-04 20:56 43.06388 -75.52476 37789 ft 416 kts 275°
2026-05-04 20:57 43.06598 -75.60393 37773 ft 416 kts 275°
2026-05-04 20:57 43.06803 -75.68241 37786 ft 415 kts 275°
2026-05-04 20:58 43.07004 -75.76151 37771 ft 415 kts 275°
2026-05-04 20:58 43.07199 -75.84038 37765 ft 415 kts 275°
2026-05-04 20:59 43.07389 -75.91927 37762 ft 414 kts 275°
2026-05-04 20:59 43.07573 -75.99803 37757 ft 414 kts 275°
2026-05-04 21:00 43.07752 -76.07696 37755 ft 414 kts 275°
2026-05-04 21:00 43.07924 -76.15565 37756 ft 414 kts 275°
2026-05-04 21:01 43.08091 -76.23392 37759 ft 414 kts 275°
2026-05-04 21:01 43.08253 -76.31260 37762 ft 413 kts 275°
2026-05-04 21:02 43.08409 -76.39126 37763 ft 413 kts 275°
2026-05-04 21:02 43.08561 -76.46998 37764 ft 413 kts 274°
2026-05-04 21:03 43.08706 -76.54850 37762 ft 413 kts 274°
2026-05-04 21:03 43.08845 -76.62656 37766 ft 413 kts 274°
2026-05-04 21:04 43.08729 -76.70524 37771 ft 415 kts 268°
2026-05-04 21:04 43.08130 -76.78392 37760 ft 416 kts 267°
2026-05-04 21:05 43.07435 -76.86246 37756 ft 416 kts 266°
2026-05-04 21:05 43.06728 -76.94068 37750 ft 415 kts 266°
2026-05-04 21:06 43.06022 -77.01913 37747 ft 415 kts 266°
2026-05-04 21:06 43.05323 -77.09640 37746 ft 399 kts 266°
2026-05-04 21:07 43.04653 -77.17011 37750 ft 390 kts 266°
2026-05-04 21:07 43.03986 -77.24352 37743 ft 390 kts 266°
2026-05-04 21:08 43.03311 -77.31718 37741 ft 390 kts 266°
2026-05-04 21:08 43.02634 -77.39030 37742 ft 390 kts 266°
2026-05-04 21:09 43.01950 -77.46380 37744 ft 390 kts 266°
2026-05-04 21:09 43.01260 -77.53728 37729 ft 389 kts 266°
2026-05-04 21:10 43.00567 -77.61065 37728 ft 390 kts 266°
2026-05-04 21:10 42.99873 -77.68363 37723 ft 390 kts 266°
2026-05-04 21:11 42.99169 -77.75706 37727 ft 390 kts 265°
2026-05-04 21:11 42.98461 -77.83047 37732 ft 390 kts 265°
2026-05-04 21:12 42.97747 -77.90395 37742 ft 390 kts 265°
2026-05-04 21:12 42.97030 -77.97735 37734 ft 390 kts 265°
2026-05-04 21:13 42.96307 -78.05072 37731 ft 390 kts 265°
2026-05-04 21:13 42.95580 -78.12406 37726 ft 390 kts 265°
2026-05-04 21:14 42.94852 -78.19703 37729 ft 390 kts 265°
2026-05-04 21:14 42.94110 -78.27094 37732 ft 390 kts 265°
2026-05-04 21:15 42.93371 -78.34400 37734 ft 391 kts 265°
2026-05-04 21:15 42.92624 -78.41740 37738 ft 390 kts 265°
2026-05-04 21:16 42.91873 -78.49073 37730 ft 390 kts 265°
2026-05-04 21:16 42.91117 -78.56404 37724 ft 390 kts 264°
2026-05-04 21:17 42.90357 -78.63729 37720 ft 390 kts 264°
2026-05-04 21:17 42.89591 -78.71066 37720 ft 390 kts 264°
2026-05-04 21:18 42.88832 -78.78287 37718 ft 390 kts 264°
2026-05-04 21:18 42.88060 -78.85592 37720 ft 389 kts 264°
2026-05-04 21:19 42.87283 -78.92895 37728 ft 389 kts 264°
2026-05-04 21:19 42.86503 -79.00175 37734 ft 388 kts 264°
2026-05-04 21:20 42.85719 -79.07450 37745 ft 388 kts 264°
2026-05-04 21:20 42.84932 -79.14712 37736 ft 387 kts 264°
2026-05-04 21:21 42.84146 -79.21925 37744 ft 387 kts 264°
2026-05-04 21:21 42.83350 -79.29177 37743 ft 387 kts 264°
2026-05-04 21:22 42.82551 -79.36424 37748 ft 387 kts 264°
2026-05-04 21:22 42.81747 -79.43660 37740 ft 386 kts 264°
2026-05-04 21:23 42.80940 -79.50888 37743 ft 386 kts 263°
2026-05-04 21:23 42.80128 -79.58121 37749 ft 386 kts 263°
2026-05-04 21:24 42.79312 -79.65346 37746 ft 386 kts 263°
2026-05-04 21:24 42.78632 -79.71339 37738 ft 386 kts 264°
2026-05-04 21:25 42.77900 -79.79539 37742 ft 386 kts 265°
2026-05-04 21:25 42.77300 -79.86800 37736 ft 386 kts 265°
2026-05-04 21:26 42.76790 -79.92891 37730 ft 386 kts 265°
2026-05-04 21:26 42.76180 -80.00106 37728 ft 386 kts 265°
2026-05-04 21:27 42.75561 -80.07374 37725 ft 386 kts 265°
2026-05-04 21:27 42.74936 -80.14648 37723 ft 387 kts 265°
2026-05-04 21:28 42.74310 -80.21884 37725 ft 388 kts 265°
2026-05-04 21:28 42.73665 -80.29277 37724 ft 388 kts 264°
2026-05-04 21:29 42.73039 -80.36519 37721 ft 388 kts 266°
2026-05-04 21:29 42.72678 -80.43846 37721 ft 388 kts 268°
2026-05-04 21:30 42.72527 -80.47502 37332 ft 388 kts 268°
2026-05-04 21:30 42.72374 -80.51147 36448 ft 394 kts 268°
2026-05-04 21:30 42.72214 -80.54922 35639 ft 399 kts 268°
2026-05-04 21:30 42.72053 -80.58648 35082 ft 397 kts 268°
2026-05-04 21:31 42.71724 -80.66124 33958 ft 395 kts 269°
2026-05-04 21:31 42.71563 -80.69764 33332 ft 395 kts 269°
2026-05-04 21:31 42.71397 -80.73481 32717 ft 394 kts 269°
2026-05-04 21:32 42.71229 -80.77203 32119 ft 392 kts 268°
2026-05-04 21:32 42.71062 -80.80890 31589 ft 389 kts 268°
2026-05-04 21:32 42.70895 -80.84513 31216 ft 383 kts 268°
2026-05-04 21:32 42.70732 -80.88067 30807 ft 379 kts 268°
2026-05-04 21:33 42.70566 -80.91633 30385 ft 375 kts 268°
2026-05-04 21:33 42.70401 -80.95163 29970 ft 372 kts 268°
2026-05-04 21:33 42.70237 -80.98647 29513 ft 368 kts 268°
2026-05-04 21:33 42.70075 -81.02065 29083 ft 364 kts 268°
2026-05-04 21:34 42.69912 -81.05479 28668 ft 359 kts 268°
2026-05-04 21:34 42.69750 -81.08851 28257 ft 355 kts 268°
2026-05-04 21:34 42.69589 -81.12176 27855 ft 351 kts 268°
2026-05-04 21:34 42.69429 -81.15462 27458 ft 347 kts 268°
2026-05-04 21:35 42.69270 -81.18719 27063 ft 343 kts 267°
2026-05-04 21:35 42.69112 -81.21933 26672 ft 339 kts 267°
2026-05-04 21:35 42.68959 -81.25031 26285 ft 336 kts 267°
2026-05-04 21:35 42.68802 -81.28182 25893 ft 333 kts 267°
2026-05-04 21:36 42.68646 -81.31309 25501 ft 330 kts 267°
2026-05-04 21:36 42.68489 -81.34242 25135 ft 327 kts 266°
2026-05-04 21:36 42.68260 -81.37309 24754 ft 325 kts 265°
2026-05-04 21:36 42.68007 -81.40349 24363 ft 323 kts 264°
2026-05-04 21:37 42.67750 -81.43368 23991 ft 320 kts 264°
2026-05-04 21:37 42.67494 -81.46375 23611 ft 318 kts 264°
2026-05-04 21:37 42.67240 -81.49350 23221 ft 316 kts 264°
2026-05-04 21:37 42.66987 -81.52310 22796 ft 314 kts 264°
2026-05-04 21:38 42.66736 -81.55234 22418 ft 310 kts 264°
2026-05-04 21:38 42.66489 -81.58107 22052 ft 308 kts 264°
2026-05-04 21:38 42.66241 -81.60991 21677 ft 308 kts 264°
2026-05-04 21:38 42.65992 -81.63877 21302 ft 306 kts 264°
2026-05-04 21:39 42.65746 -81.66709 20934 ft 305 kts 264°
2026-05-04 21:39 42.65498 -81.69565 20569 ft 304 kts 264°
2026-05-04 21:39 42.65250 -81.72408 20197 ft 302 kts 264°
2026-05-04 21:39 42.65003 -81.75231 19835 ft 301 kts 263°
2026-05-04 21:40 42.64757 -81.78042 19464 ft 300 kts 263°
2026-05-04 21:40 42.64512 -81.80832 19094 ft 298 kts 263°
2026-05-04 21:40 42.64265 -81.83634 18730 ft 297 kts 263°
2026-05-04 21:40 42.64022 -81.86377 18365 ft 296 kts 263°
2026-05-04 21:41 42.63777 -81.89144 18008 ft 294 kts 263°
2026-05-04 21:41 42.63531 -81.91902 17609 ft 293 kts 263°
2026-05-04 21:41 42.63287 -81.94644 17293 ft 290 kts 263°
2026-05-04 21:41 42.63043 -81.97366 17099 ft 291 kts 263°
2026-05-04 21:42 42.62799 -82.00091 16851 ft 289 kts 263°
2026-05-04 21:42 42.62556 -82.02791 16499 ft 287 kts 263°
2026-05-04 21:42 42.62314 -82.05472 16138 ft 285 kts 263°
2026-05-04 21:42 42.62074 -82.08132 15789 ft 283 kts 263°
2026-05-04 21:43 42.61835 -82.10774 15432 ft 281 kts 263°
2026-05-04 21:43 42.61597 -82.13392 15085 ft 278 kts 263°
2026-05-04 21:43 42.61359 -82.15992 14742 ft 276 kts 263°
2026-05-04 21:43 42.61124 -82.18569 14403 ft 274 kts 263°
2026-05-04 21:44 42.60893 -82.21097 14067 ft 273 kts 263°
2026-05-04 21:44 42.60660 -82.23637 13727 ft 270 kts 263°
2026-05-04 21:44 42.60428 -82.26159 13386 ft 268 kts 263°
2026-05-04 21:44 42.60196 -82.28665 13026 ft 266 kts 263°
2026-05-04 21:45 42.59967 -82.31151 12697 ft 265 kts 263°
2026-05-04 21:45 42.59737 -82.33629 12365 ft 264 kts 263°
2026-05-04 21:45 42.59508 -82.36091 12037 ft 263 kts 262°
2026-05-04 21:45 42.59280 -82.38547 11706 ft 261 kts 262°
2026-05-04 21:46 42.59033 -82.40975 11303 ft 261 kts 259°
2026-05-04 21:46 42.58532 -82.43335 10982 ft 259 kts 251°
2026-05-04 21:46 42.57870 -82.45598 10653 ft 258 kts 249°
2026-05-04 21:46 42.57176 -82.47844 10331 ft 257 kts 249°
2026-05-04 21:47 42.56501 -82.50011 10055 ft 254 kts 249°
2026-05-04 21:47 42.55839 -82.52138 9935 ft 244 kts 249°
2026-05-04 21:47 42.55191 -82.54224 9786 ft 236 kts 248°
2026-05-04 21:47 42.54569 -82.56230 9526 ft 234 kts 249°
2026-05-04 21:48 42.53944 -82.58250 9234 ft 231 kts 248°
2026-05-04 21:48 42.53324 -82.60253 8968 ft 229 kts 248°
2026-05-04 21:48 42.52705 -82.62250 8696 ft 229 kts 248°
2026-05-04 21:48 42.52089 -82.64238 8422 ft 229 kts 248°
2026-05-04 21:49 42.51472 -82.66228 8159 ft 229 kts 248°
2026-05-04 21:49 42.50849 -82.68213 7890 ft 229 kts 247°
2026-05-04 21:49 42.50201 -82.70256 7573 ft 243 kts 247°
2026-05-04 21:49 42.49522 -82.72387 7239 ft 248 kts 246°
2026-05-04 21:50 42.48866 -82.74543 6989 ft 247 kts 251°
2026-05-04 21:50 42.48570 -82.76825 6936 ft 249 kts 268°
2026-05-04 21:50 42.48916 -82.79135 6937 ft 250 kts 287°
2026-05-04 21:50 42.49646 -82.81162 6933 ft 235 kts 292°
2026-05-04 21:51 42.50419 -82.83041 6932 ft 221 kts 293°
2026-05-04 21:51 42.51163 -82.84842 6936 ft 218 kts 292°
2026-05-04 21:51 42.51902 -82.86652 6934 ft 219 kts 292°
2026-05-04 21:51 42.52637 -82.88466 6934 ft 220 kts 292°
2026-05-04 21:52 42.53371 -82.90285 6929 ft 220 kts 292°
2026-05-04 21:52 42.54104 -82.92104 6935 ft 220 kts 292°
2026-05-04 21:52 42.54820 -82.93883 6904 ft 220 kts 292°
2026-05-04 21:52 42.55560 -82.95728 6532 ft 223 kts 292°
2026-05-04 21:53 42.56303 -82.97579 6184 ft 224 kts 292°
2026-05-04 21:53 42.56492 -82.98052 6100 ft 224 kts 292°
2026-05-04 21:53 42.57043 -82.99491 5771 ft 224 kts 287°
2026-05-04 21:53 42.57394 -83.01518 5512 ft 214 kts 269°
2026-05-04 21:54 42.57392 -83.03536 5126 ft 214 kts 264°
2026-05-04 21:54 42.57170 -83.05486 4974 ft 205 kts 248°
2026-05-04 21:54 42.56458 -83.07114 4962 ft 202 kts 227°
2026-05-04 21:54 42.55427 -83.08387 4957 ft 204 kts 221°
2026-05-04 21:55 42.54250 -83.09501 4958 ft 207 kts 214°
2026-05-04 21:55 42.52992 -83.10461 4959 ft 208 kts 212°
2026-05-04 21:55 42.51719 -83.11395 4964 ft 208 kts 212°
2026-05-04 21:55 42.50443 -83.12329 4960 ft 209 kts 212°
2026-05-04 21:56 42.49173 -83.13263 4957 ft 207 kts 212°
2026-05-04 21:56 42.47928 -83.14181 4990 ft 200 kts 212°
2026-05-04 21:56 42.46695 -83.15095 4970 ft 203 kts 213°
2026-05-04 21:56 42.45378 -83.15817 4963 ft 205 kts 206°
2026-05-04 21:57 42.44122 -83.16683 4955 ft 201 kts 214°
2026-05-04 21:57 42.42926 -83.17611 4956 ft 191 kts 214°
2026-05-04 21:57 42.41809 -83.18478 4962 ft 182 kts 214°
2026-05-04 21:57 42.40716 -83.19335 4966 ft 181 kts 214°
2026-05-04 21:58 42.39632 -83.20178 4942 ft 178 kts 214°
2026-05-04 21:58 42.38570 -83.20984 4702 ft 178 kts 214°
2026-05-04 21:58 42.37467 -83.21796 4236 ft 184 kts 213°
2026-05-04 21:58 42.36365 -83.22623 3812 ft 187 kts 213°
2026-05-04 21:59 42.35239 -83.23469 3532 ft 181 kts 213°
2026-05-04 21:59 42.34170 -83.24270 3338 ft 172 kts 213°
2026-05-04 21:59 42.33137 -83.25046 3105 ft 167 kts 213°
2026-05-04 21:59 42.32153 -83.25782 2917 ft 157 kts 213°
2026-05-04 22:00 42.31215 -83.26485 2722 ft 150 kts 214°
2026-05-04 22:00 42.30372 -83.27117 2542 ft 136 kts 214°
2026-05-04 22:00 42.29592 -83.27701 2368 ft 129 kts 214°
2026-05-04 22:00 42.28806 -83.28292 2189 ft 127 kts 214°
2026-05-04 22:01 42.28029 -83.28873 2025 ft 127 kts 214°
2026-05-04 22:01 42.27269 -83.29443 1854 ft 127 kts 213°
2026-05-04 22:01 42.26492 -83.30022 1686 ft 127 kts 215°
2026-05-04 22:01 42.26011 -83.30384 1578 ft 128 kts 213°
2026-05-04 22:02 42.25440 -83.30816 1454 ft 127 kts 209°
2026-05-04 22:02 42.24661 -83.31395 1284 ft 127 kts 211°
2026-05-04 22:02 42.23891 -83.31967 1117 ft 125 kts 210°
2026-05-04 22:02 42.23177 -83.32523 945 ft 124 kts 212°
2026-05-04 22:03 42.22438 -83.33073 837 ft 120 kts 204°
2026-05-04 22:03 42.21714 -83.33595 681 ft 113 kts 201°
2026-05-04 22:03 42.21305 -83.33877 657 ft 94 kts 205°
2026-05-04 22:03 42.20900 -83.34194 653 ft 41 kts 212°
2026-05-04 22:04 42.20800 -83.34275 652 ft 9 kts 210°
2026-05-04 22:04 42.20654 -83.34419 656 ft 31 kts 225°
2026-05-04 22:04 42.20566 -83.34603 653 ft 27 kts 268°
2026-05-04 22:04 42.20589 -83.34715 652 ft 0 kts 332°
2026-05-04 22:05 42.20593 -83.34713 652 ft 1 kts 14°